User: anonymous   Login
Location: ??????
(41.3164°N, 22.6615°E)
Time: 12:27:57
(UTC+00:00)
Language:

GPS 2-04 Rocket1 - Orbit

View from above orbital plane
View from above orbital plane
View from above satellite
View from above satellite

Ground track
Ground track

The orbit data is extracted from the following two-line orbital elements,

1 20303U 89085B   22021.47114171  .00007916  00000-0  22815-3 0  9995
2 20303  35.6405 299.5270 0088818 331.8819  27.7131 15.31162933757883
Epoch (UTC): 21 January 2022 11:18:26
Eccentricity: 0.0088818
inclination: 35.6405°
perigee height: 411 km
apogee height: 533 km
right ascension of ascending node: 299.5270°
argument of perigee: 331.8819°
revolutions per day: 15.31162933
mean anomaly at epoch: 27.7131°
orbit number at epoch: 75788

The dashed part of the orbit path shows where the satellite is in the earth's shadow,  

DLR